Погода в Уачо

Перу     11°06′14″S   77°35′44″W
темп.,
°C
ветер,
м/с
пор.,
м/с
влажн.,
%
обл.,
%
осадки,
мм/ч
давл.,
гПа
погр.,
м
25 января, вт
вт2501:00+20ююз117994 0.0 1012213
04:00+20ююз2281100 0.0 1011161
07:00+20ююз1182100 0.0 1012198
10:00+24юз3265100 0.0 1013779
13:00+26юз545735 0.0 10111035
16:00+25юз546055 0.0 1010874
19:00+22юз327397 0.0 1012428
22:00+20ююз228055 0.0 1014320
26 января, ср
ср2601:00+20юз118199 0.0 1013252
04:00+20ююз118439 0.0 1012188
07:00+20юз118338 0.0 1013200
10:00+24зюз326546 0.0 1014757
13:00+26юз545743 0.0 10121026
16:00+25юз536016 0.0 1012828
19:00+22ююз3370100 0.0 1014417
22:00+21ююз2275100 0.0 1015312
27 января, чт
чт2701:00+20ююз218098 0.0 1014241
04:00+20ю2283100 0.0 1013163
07:00+20ююз118397 0.0 1014177
10:00+24юз326574 0.0 1013662
13:00+26юз535848 0.0 1012949
16:00+24юз546263 0.0 1011836
19:00+21юз327799 0.1 1013388
22:00+20ююз2281100 0.0 1015292
28 января, пт
пт2801:00+19юз2188100 0.0 1013309
04:00+19юз2188100 0.1 1013274
07:00+19ююз2187100 0.1 1014245
10:00+21юз2178100 0.0 1014452
13:00+23юз4265100 0.0 1013771
16:00+23юз4366100 0.0 1012761
19:00+20юз3279100 0.0 1014437
22:00+20ююз2281100 0.0 1016326
29 января, сб
сб2901:00+19юз118487 0.0 1014229
04:00+19ююз118691 0.0 1013157
07:00+19ююз1184100 0.0 1014159
10:00+23юз326568 0.0 1014685
13:00+25юз535691 0.0 10131065
16:00+24юз546184 0.0 1012899
19:00+21юз327298 0.1 1013404
22:00+20ююз217699 0.0 1015288